GSAT0103 (GALILEO-FM3) (38857 NORAD) Tracking and Keplerian Element Data

This shows tracking and keplerian element data for the satellite.

Feedback or suggestion? Click here.




ElementValue
Catalog38857
NameGSAT0103 (GALILEO-FM3)
Epoch Orbit3580
Epoch Day195.0938541
Epoch Year2018
RAAN181.1968
Inclination54.9123
Eccentricity0.0005288
Argument of Perigee261.2753
Mean Anonmoly98.636
Mean Motion1.70473706
Decay Rate5.2E-07
L11 38857U 12055A 18195.09385410 .00000052 00000-0 00000+0 0 9994
L22 38857 54.9123 181.1968 0005288 261.2753 98.6360 1.70473706 35803

Live tracking and technical data element details for GSAT0103 (GALILEO-FM3) (NORAD 38857). GSAT0103 (GALILEO-FM3) can be tracked NOW for your location showing map with azimuth and elevation plus other details from your city location.

Track the satellite on the map from your city or location and see movement details for azimuth, elevation, latitude, longitude, range, height, and movement on the map or in text.







IsCatalogInMostPopularTable: catalog: 38857, numindb: 48
Update: records affected: 1



GetName: 38857 GSAT0103 (GALILEO-FM3)

Hit Count: updated at: Sun, 15 Jul 2018 23:14:54 GMT